Terug naar catalogus

HELLAS-SAT 2

ActiefCommunicatieGEO
NORAD 27811·PAYLOAD·🇬🇷 Greece

Gelanceerd May 13, 2003 vanaf Cape Canaveral Space Force Station

Loading…

TLE

VersSource: Space-Track

Epoch: Sep 14, 2026, 06:54 UTC

1 27811U 03020A   26257.28799103 -.00000090  00000-0  00000-0 0  9995
2 27811   7.5707  66.7835 0007519 138.2756 241.9250  1.00272442 43749

Volg HELLAS-SAT 2 in realtime met AllMySat

Download on the App Store